{"data":{"norad_id":67238,"intl_designator":"2025-311C","name":"HULIANWANG DIGUI-130","alt_names":[],"object_type":"PAYLOAD","status":"ACTIVE","operator":null,"country":"PRC","launch_date":"2025-12-25","launch_site_code":"WSC","launch_vehicle":null,"mission":null,"orbit_class":"UNKNOWN","rcs_meters":null,"size_class":null,"mass_kg":null,"dimensions":null,"purposes":[],"wikipedia_slug":null,"has_3d_model":false,"image_url":null,"decayed_at":null,"tle_current":{"epoch":"2026-05-25T03:57:47.884320Z","epoch_age_seconds":56915,"freshness":"FRESH","line1":"1 67238U 25311C   26145.16513755 -.00000096  00000+0  60628-4 0  9990","line2":"2 67238  50.0036 198.5783 0001039 247.1804 112.8958 13.29322628 20275","mean_motion":13.29322628,"eccentricity":0.0001039,"inclination_deg":50.0036,"raan_deg":198.5783,"arg_perigee_deg":247.1804,"mean_anomaly_deg":112.8958,"bstar":6.0628e-5,"rev_number":2027,"period_min":108.3258472901,"perigee_km":1148.5371986994,"apogee_km":1150.1014041189,"semimajor_km":7527.4563014092,"source":"CELESTRAK","updated_at":"2026-05-25T13:38:06.821780Z"}}}